Simultaneous Nadir Overpasses (SNOs) Predictions

Prediction of SNOs between AURA and NPP Satellite Orbit:

Table of predicted SNOs for the next 14.0 days since TLE Epoch: 6/22/2024
Index Date (AURA) Time (AURA) Lat,Lon (AURA) SZA (AURA ) Date (NPP) Time (NPP) Lat,Lon (NPP) SZA (NPP ) Distance(km) Time Diff (sec)
1 06/24/2024 04:18:32 80.71, 25.31 67.04 06/24/2024 04:18:33 80.71, 25.43 67.02 2.16 1
2 06/26/2024 17:13:27 80.64,-169.15 67.27 06/26/2024 17:12:36 80.64,-169.16 67.30 0.25 51
3 06/26/2024 18:02:49 -80.70, -0.75 112.86 06/26/2024 18:03:18 -80.71, -0.75 112.88 0.23 29
4 06/29/2024 06:57:41 -80.67, 165.19 112.66 06/29/2024 06:57:18 -80.68, 165.31 112.67 2.35 23
5 06/29/2024 07:47:01 80.74, -26.33 67.21 06/29/2024 07:48:00 80.74, -26.42 67.18 1.58 59
6 07/01/2024 19:52:34 -80.61, -29.18 112.36 07/01/2024 19:51:21 -80.60, -29.35 112.29 3.23 73
7 07/01/2024 20:41:53 80.71, 139.59 67.46 07/01/2024 20:42:01 80.71, 139.58 67.45 0.30 8
8 07/04/2024 09:36:45 80.65, -54.78 67.79 07/04/2024 09:36:03 80.65, -54.79 67.82 0.24 42



Historial Predications of SNOs between AURA and NPP
